Weather Roundup
Issued by NWS Springfield, MO

Home | Current Version | Previous Version | Text Only | Print | Product List | Glossary On
Versions: 1 2 3 4 5 6 7 8 9 10 11 12 13 14 15 16 17 18 19 20 21 22 23 24 25 26 27 28 29 30 31 32 33 34 35 36 37 38 39 40 41 42 43 44 45 46 47 48 49 50
000
NZUS99 KSGF 290207
HRRSGF

HOURLY WEATHER
NATIONAL WEATHER SERVICE SPRINGFIELD MO
900 PM CDT TUE MAR 28 2017

......SGF CWA......

CITY           SKY/WX    TMP DP  RH WIND       PRES   REMARKS
SPRINGFIELD    CLEAR     60  50  69 E13       29.94S
JOPLIN         PTCLDY    60  53  77 E10       29.89R
WEST PLAINS    MOCLDY    58  49  72 E8        30.02R
ROLLA          CLOUDY    53  49  86 E10       30.05R
OSAGE BEACH    CLOUDY    55  50  83 E10       30.05R
BRANSON        MOCLDY    63  52  67 E13       29.94S

......SURROUNDING SGF CWA......

CITY           SKY/WX    TMP DP  RH WIND       PRES   REMARKS
CHANUTE        CLOUDY    57  51  80 NE14      29.88F
PARSONS        CLOUDY    60  51  72 NE12G21   29.86F
COFFEYVILLE    CLOUDY    61  52  72 E17       29.83F
EMPORIA        CLOUDY    53  51  93 NE17G24   29.91R
GROVE OK       CLOUDY    68  55  64 NE12      29.83F
ROGERS AR      CLOUDY    66  54  65 E14G22    29.88F
SILOAM SPRINGS PTCLDY    68  55  64 SE9       29.85F
HARRISON AR    MOCLDY    63  54  72 E15       29.93F
NEAR YELLVILLE CLOUDY    64  50  59 E13G18    29.95R

......KANSAS AND MISSOURI......

CITY           SKY/WX    TMP DP  RH WIND       PRES   REMARKS
KANSAS CTY INT CLOUDY    53  49  86 NE15      30.00F
DOWNTOWN KC    CLOUDY    54  50  86 E14       29.99F
COLUMBIA       CLOUDY    55  50  83 E10       30.06S
SEDALIA        CLOUDY    56  51  84 E10       30.04S
ST JOSEPH      CLOUDY    53  49  86 NE12      30.03F
ST LOUIS       CLOUDY    57  47  69 NE9       30.10R
SPIRIT OF STL  CLOUDY    56  49  77 NE9       30.09R
KIRKSVILLE     CLOUDY    51  47  86 E8        30.11S
WICHITA        TSTM      51  50  96 N16       29.86R FOG
TOPEKA         CLOUDY    53  51  93 E15       29.98S
OLATHE         CLOUDY    52  51  97 E13       29.96F

......TENNESSEE......

CITY           SKY/WX    TMP DP  RH WIND       PRES   REMARKS
MEMPHIS        CLEAR     70  55  59 NE12      29.96R
NASHVILLE      CLEAR     60  54  80 N9        30.05R

......ARKANSAS.......

CITY           SKY/WX    TMP DP  RH WIND       PRES   REMARKS
FAYETTEVILLE   MOCLDY    67  58  72 SE8       29.87F
FT SMITH       MOCLDY    71  58  63 E14       29.82F
LITTLE ROCK    MOCLDY    67  60  78 NE10      29.91S

......OKLAHOMA.......

CITY           SKY/WX    TMP DP  RH WIND       PRES   REMARKS
TULSA          CLOUDY    67  56  67 E9        29.75F
PONCA CITY     CLOUDY    58  51  78 E22G29    29.72F
MCALESTER      MOCLDY    72  61  68 E10G21    29.75F
OKLAHOMA CITY  CLOUDY    67  60  78 SE24      29.65F THUNDER

......IOWA............

CITY           SKY/WX    TMP DP  RH WIND       PRES   REMARKS
DES MOINES     CLOUDY    51  43  74 E6        30.13F
QUAD CITIES    CLOUDY    46  39  76 E6        30.17R

......ILLINOIS........

CITY           SKY/WX    TMP DP  RH WIND       PRES   REMARKS
QUINCY         CLOUDY    52  47  83 E9        30.12R
CHICAGO        CLOUDY    41  36  82 NE8       30.19R




USA.gov is the U.S. government's official web portal to all federal, state and local government web resources and services.